{"data":{"norad_id":52455,"intl_designator":"2022-049E","name":"STARLINK-3890","alt_names":[],"object_type":"PAYLOAD","status":"ACTIVE","operator":null,"country":"US","launch_date":"2022-05-06","launch_site_code":"AFETR","launch_vehicle":null,"mission":null,"orbit_class":"UNKNOWN","rcs_meters":null,"size_class":null,"mass_kg":null,"dimensions":null,"purposes":["comms"],"wikipedia_slug":null,"has_3d_model":false,"image_url":null,"decayed_at":null,"tle_current":{"epoch":"2026-09-20T00:48:19.463040Z","epoch_age_seconds":99996,"freshness":"FRESH","line1":"1 52455U 22049E   26263.03355860  .00000550  00000+0  26676-4 0  9997","line2":"2 52455  53.1601 271.6370 0001169  75.8700 284.2432 15.35402037241517","mean_motion":15.35402037,"eccentricity":0.0001169,"inclination_deg":53.1601,"raan_deg":271.637,"arg_perigee_deg":75.87,"mean_anomaly_deg":284.2432,"bstar":2.6676e-5,"rev_number":24151,"period_min":93.786510978818,"perigee_km":458.92724867083,"apogee_km":460.52594117932,"semimajor_km":6837.8635949251,"source":"CELESTRAK","updated_at":"2026-09-20T09:00:40.032278Z"}}}